Regional Weather Roundup
Issued by NWS

Home | Current Version | Previous Version | Text Only | Print | Product List | Glossary Off
Versions: 1 2 3 4 5 6 7 8 9 10 11 12 13 14 15 16 17 18 19 20 21 22 23 24 25 26 27 28 29 30 31 32 33 34 35 36 37 38 39 40 41 42 43 44 45 46 47 48 49 50

353
ASUS45 KBOU 302010
RWRCO

WEATHER ROUNDUP FOR COLORADO
NATIONAL WEATHER SERVICE DENVER/BOULDER CO
200 PM MDT FRI SEP 30 2016

NOTE: "FAIR" INDICATES FEW OR NO CLOUDS BELOW 12000 FEET WITH NO
SIGNIFICANT WEATHER AND/OR OBSTRUCTIONS TO VISIBILITY.

COZ001>005-013-030-031-302100-
...NORTHWEST COLORADO...

CITY           SKY/WX    TMP DP  RH WIND       PRES   REMARKS
CRAIG          FAIR      72  44  36 MISG      30.27F
HAYDEN         FAIR      63  45  51 CALM      30.30F
MEEKER         FAIR      64  47  53 S9        30.30F
MOUNT WERNER   NOT AVBL
STEAMBOAT SPGS FAIR      62  47  58 CALM      30.32F
WALDEN           N/A     59  39  47 SW6       30.37F
$$

COZ006>008-011-302100-
...WEST CENTRAL VALLEYS...

CITY           SKY/WX    TMP DP  RH WIND       PRES   REMARKS
GRAND JUNCTION FAIR      68  53  58 SW7       30.24F
MONTROSE       FAIR      67  49  52 MISG      30.29F
EAGLE          MOSUNNY   66  45  45 W6        30.32F
RIFLE          FAIR      68  50  52 CALM      30.26F
DELTA          FAIR      74  50  43 SW10      30.26
NUCLA          PTSUNNY   68  50  52 W5        30.34F
$$

COZ017>023-064>068-302100-
...SOUTHWEST COLORADO...

CITY           SKY/WX    TMP DP  RH WIND       PRES   REMARKS
DURANGO        FAIR      68  46  45 SW10      30.30F
CORTEZ         PTSUNNY   71  52  50 SW8       30.29F
PAGOSA SPRINGS FAIR      67  37  33 S8        30.35F
TELLURIDE      PTSUNNY   55  41  58 W13G21    30.45F
WOLF CREEK PAS PTSUNNY   45  36  70 SW13G24   30.60F
$$

COZ009-010-012-014-032>034-037-058>063-302100-
...CENTRAL COLORADO...

CITY           SKY/WX    TMP DP  RH WIND       PRES   REMARKS
ASPEN          PTSUNNY   63  41  44 N8        30.35F
BUENA VISTA    CLOUDY    67  35  30 NW14G20   30.32F
COPPER MTN     CLOUDY    41  37  87 W16       30.59F
BERTHOUD PASS  HAZE      36  25  64 MISG      30.60F VSB<1/4
COTTONWOOD PAS CLOUDY    61  30  31 SW7G17    30.45S
GUNNISON       LGT RAIN  57  43  59 NW9G17    30.37F
KREMMLING      CLOUDY    59  45  58 NE5       30.37F
LEADVILLE      FAIR      55  34  45 NW13G21   30.44F
MONARCH PASS   RAIN      43  37  81 W18       30.68F
SALIDA         FAIR      74  35  24 SW6       30.35F
SUNLIGHT       CLOUDY    52  45  76 S3        30.56F
WILKERSON PASS DRIZZLE   46  34  61 SE6       30.56F
$$

COZ069>075-302100-
...SAN LUIS VALLEY/SANGRE DE CRISTO MOUNTAINS...

CITY           SKY/WX    TMP DP  RH WIND       PRES   REMARKS
ALAMOSA        FAIR      72  37  28 N8        30.31F
LA VETA PASS   FAIR      63  36  36 MISG      30.47F
SAGUACHE       FAIR      70  36  28 W16       30.33F
$$

COZ035-036-038>040-302100-
...NORTHERN COLORADO FRONT RANGE...

CITY           SKY/WX    TMP DP  RH WIND       PRES   REMARKS
DENVER INTL AP PTSUNNY   71  44  37 N12       30.22F
DMNS CITY PARK   N/A     69  45  41 NE2G9     30.21F
AURORA         PTSUNNY   70  44  39 N7        30.23F
FRONT RANGE AP PTSUNNY   73  45  35 N12       30.23
ERIE MUNI ARPT FAIR      68  43  40 CALM      30.21F
BOULDER MUN AP FAIR      68  45  42 CALM      30.21F
CENTENNIAL     PTSUNNY   71  43  36 N10       30.24F
BROOMFIELD     PTSUNNY   68  45  42 VRB5      30.24
FORT COLLINS   FAIR      66  48  52 S6        30.19F
LONGMONT       PTSUNNY   72  47  41 E3        30.22F
$$

COZ041-046-047-076>085-087-088-302100-
...PIKES PEAK/PALMER DIVIDE AND SOUTHERN FOOTHILLS...

CITY           SKY/WX    TMP DP  RH WIND       PRES   REMARKS
COLO. SPRINGS  PTSUNNY   77  40  26 N13       30.24F
A. F. ACADEMY  PTSUNNY   69  40  35 NE13      30.25F
SCHRIEVER AFB  NOT AVBL
ELLICOTT       NOT AVBL
FALCON         FAIR      72  39  30 N13G20    30.28F
FORT CARSON    NOT AVBL
LIMON          FAIR      74  41  30 NW13      30.18F
MONUMENT HILL  PTSUNNY   63  41  45 NE10G16   30.31F
TRINIDAD       FAIR      80  35  19 VRB5      30.16F
$$

COZ042>045-048>051-090-091-302100-
...NORTHEAST COLORADO...

CITY           SKY/WX    TMP DP  RH WIND       PRES   REMARKS
GREELEY ARPT   FAIR      68  48  49 E3        30.20F
AKRON          FAIR      72  42  34 E12       30.17F
BURLINGTON     FAIR      71  44  37 SE18      30.15F
WRAY           NOT AVBL
STERLING       FAIR      72  45  37 E5        30.14F
HOLYOKE        FAIR      73  45  35 SE12      30.16F
FORT MORGAN    FAIR      77  42  28 SE8       30.17F
$$

COZ086-089-092>099-302100-
...SOUTHEAST COLORADO...

CITY           SKY/WX    TMP DP  RH WIND       PRES   REMARKS
PUEBLO         PTSUNNY   82  41  23 N14       30.10F
LA JUNTA       FAIR      75  42  30 VRB3      30.11F
LAMAR          FAIR      81  42  25 SE6       30.06F
SPRINGFIELD      N/A     80  47  31 S12       30.11F
$$




USA.gov is the U.S. government's official web portal to all federal, state and local government web resources and services.